Location: Newark
(34.7667°N, 118.4167°W)
Time: 18:05:59
(UTC+00:00)

N. Korean satellite - Visible Passes

Search period start: 23 October 2019 00:00
Search period end: 02 November 2019 00:00
Orbit: 455 x 508 km, 97.2° (Epoch: 22 October)

Date Brightness Start Highest point End Pass type
(mag) Time Alt. Az. Time Alt. Az. Time Alt. Az.
23 Oct 8.5 01:31:48 10° SSW 01:34:57 35° W 01:38:09 10° NNW visible
23 Oct 9.6 13:01:36 10° NE 13:04:24 21° E 13:07:13 10° SE visible
26 Oct 9.6 01:49:52 10° SW 01:52:26 20° W 01:55:04 10° NW visible
26 Oct 8.5 13:18:30 10° NNE 13:21:55 35° E 13:25:20 10° SSE visible
27 Oct 10.0 12:54:05 10° NE 12:56:30 17° E 12:58:56 10° SE visible
29 Oct 10.3 02:08:41 10° WSW 02:09:58 12° W 02:11:15 10° WNW visible
29 Oct 7.2 13:35:41 10° NNE 13:39:21 65° E 13:43:03 10° S visible
30 Oct 9.1 01:41:35 10° SSW 01:44:30 26° W 01:47:27 10° NW visible
30 Oct 9.0 13:10:46 10° NE 13:14:01 28° E 13:17:14 10° SSE visible
31 Oct 10.2 12:46:42 10° ENE 12:48:34 13° E 12:50:25 10° ESE visible
